{"data":{"norad_id":68159,"intl_designator":"2026-049T","name":"STARLINK-37053","alt_names":[],"object_type":"PAYLOAD","status":"ACTIVE","operator":null,"country":"US","launch_date":"2026-03-13","launch_site_code":"AFWTR","launch_vehicle":null,"mission":null,"orbit_class":"UNKNOWN","rcs_meters":null,"size_class":null,"mass_kg":null,"dimensions":null,"purposes":["comms"],"wikipedia_slug":null,"has_3d_model":false,"image_url":null,"decayed_at":null,"tle_current":{"epoch":"2026-09-19T00:23:26.261952Z","epoch_age_seconds":183971,"freshness":"STALE","line1":"1 68159U 26049T   26262.01627618  .00014236  00000+0  44244-3 0  9995","line2":"2 68159  97.2846 281.9949 0001026  94.2312 265.9048 15.33446031 29273","mean_motion":15.33446031,"eccentricity":0.0001026,"inclination_deg":97.2846,"raan_deg":281.9949,"arg_perigee_deg":94.2312,"mean_anomaly_deg":265.9048,"bstar":0.00044244,"rev_number":2927,"period_min":93.90614151976,"perigee_km":464.83794567805,"apogee_km":466.24226822039,"semimajor_km":6843.6771069492,"source":"CELESTRAK","updated_at":"2026-09-20T09:00:43.795760Z"}}}